Location: Altmatt
(47.1333°N, 8.7000°E)
Time: 07:14:32
(UTC+00:00)

Cosmos 1943 Rocket - Pass Details

Date: 13 July 2020
Orbit: 811 x 845 km, 71.0° (Epoch: 04 August)

Event Time Altitude Azimuth Distance (km) Brightness Sun altitude
Rises 20:19:32 0° 338° (NNW) 3,416 6.8 -8.8°
Reaches altitude 10° 20:22:32 10° 353° (N) 2,476 5.5 -9.2°
Maximum altitude 20:27:00 23° 45° (NE) 1,721 3.9 -9.7°
Drops below altitude 10° 20:31:25 10° 97° (E) 2,457 4.2 -10.2°
Enters shadow 20:32:20 - 103° (ESE) 2,725 4.4 -10.3°
